4XHPO LLKX-LLMG

Flight info

Callsign 4XHPO
Flight time N/A
Altitude 400
Route KIDRON AIRFIELD LSA ROUTES
Aircraft SVNH/L-V/N

Departure

Time N/A
Airport LLKX

Arrival

Time 2026-05-01 10:04
Airport Megiddo Airport (LLMG)
Time Latitude Longitude Altitude Speed Heading
2026-05-01 09:19 31.81994 34.80007 150 ft 0 kts 350°
2026-05-01 09:20 31.82005 34.80004 150 ft 4 kts
2026-05-01 09:21 31.82008 34.80006 150 ft 0 kts 30°
2026-05-01 09:21 31.82240 34.80202 219 ft 53 kts 19°
2026-05-01 09:22 31.83002 34.80118 432 ft 66 kts 326°
2026-05-01 09:22 31.83432 34.78941 601 ft 93 kts 309°
2026-05-01 09:23 31.83907 34.78418 605 ft 91 kts 321°
2026-05-01 09:23 31.84919 34.77523 473 ft 88 kts 320°
2026-05-01 09:24 31.85982 34.76993 528 ft 85 kts 350°
2026-05-01 09:24 31.86566 34.76945 542 ft 85 kts 350°
2026-05-01 09:24 31.87704 34.76713 481 ft 83 kts 348°
2026-05-01 09:25 31.88850 34.76628 476 ft 82 kts 349°
2026-05-01 09:25 31.89978 34.76746 535 ft 82 kts
2026-05-01 09:26 31.90545 34.76878 472 ft 86 kts
2026-05-01 09:26 31.90775 34.76926 436 ft 86 kts
2026-05-01 09:26 31.91026 34.76974 448 ft 82 kts
2026-05-01 09:27 31.92193 34.77112 469 ft 89 kts 357°
2026-05-01 09:27 31.92807 34.77129 446 ft 85 kts 340°
2026-05-01 09:27 31.93399 34.77081 420 ft 87 kts 356°
2026-05-01 09:28 31.94003 34.77097 383 ft 87 kts 355°
2026-05-01 09:28 31.94610 34.77139 368 ft 86 kts 354°
2026-05-01 09:28 31.95179 34.77141 396 ft 79 kts 343°
2026-05-01 09:28 31.95653 34.76880 411 ft 73 kts 323°
2026-05-01 09:29 31.96346 34.76059 397 ft 71 kts 293°
2026-05-01 09:29 31.96545 34.75533 403 ft 71 kts 292°
2026-05-01 09:30 31.96327 34.74607 433 ft 87 kts 191°
2026-05-01 09:30 31.95880 34.75002 528 ft 92 kts 88°
2026-05-01 09:30 31.96841 34.74964 429 ft 80 kts 328°
2026-05-01 09:31 31.97339 34.74660 379 ft 82 kts 324°
2026-05-01 09:31 31.97800 34.74302 384 ft 77 kts 322°
2026-05-01 09:31 31.98735 34.73730 380 ft 74 kts 326°
2026-05-01 09:32 31.99185 34.73446 364 ft 74 kts 325°
2026-05-01 09:32 32.00186 34.73097 439 ft 89 kts
2026-05-01 09:32 32.00802 34.73281 418 ft 92 kts
2026-05-01 09:33 32.01429 34.73473 426 ft 93 kts
2026-05-01 09:33 32.02068 34.73647 420 ft 96 kts
2026-05-01 09:33 32.03394 34.73964 429 ft 101 kts
2026-05-01 09:34 32.04099 34.74150 423 ft 106 kts 11°
2026-05-01 09:34 32.04787 34.74430 393 ft 104 kts 13°
2026-05-01 09:34 32.06085 34.75208 366 ft 106 kts 21°
2026-05-01 09:35 32.06736 34.75542 411 ft 101 kts 14°
2026-05-01 09:35 32.08044 34.76126 369 ft 100 kts 13°
2026-05-01 09:35 32.08692 34.76379 421 ft 98 kts 12°
2026-05-01 09:36 32.09363 34.76617 407 ft 101 kts 14°
2026-05-01 09:36 32.10044 34.76807 417 ft 101 kts 11°
2026-05-01 09:36 32.10728 34.76978 427 ft 100 kts
2026-05-01 09:36 32.11416 34.77140 432 ft 101 kts 11°
2026-05-01 09:37 32.12102 34.77348 430 ft 101 kts 13°
2026-05-01 09:37 32.13466 34.77772 442 ft 102 kts 17°
2026-05-01 09:37 32.14148 34.78003 438 ft 102 kts 13°
2026-05-01 09:38 32.15509 34.78412 452 ft 101 kts 15°
2026-05-01 09:38 32.16187 34.78667 434 ft 103 kts 15°
2026-05-01 09:38 32.16880 34.78909 406 ft 104 kts 14°
2026-05-01 09:39 32.18008 34.79299 437 ft 101 kts 14°
2026-05-01 09:39 32.18680 34.79537 442 ft 101 kts 16°
2026-05-01 09:39 32.19349 34.79798 442 ft 101 kts 16°
2026-05-01 09:40 32.20017 34.80061 452 ft 101 kts 16°
2026-05-01 09:40 32.21362 34.80541 463 ft 101 kts 15°
2026-05-01 09:40 32.22034 34.80788 466 ft 101 kts 15°
2026-05-01 09:41 32.22711 34.81025 470 ft 101 kts 13°
2026-05-01 09:41 32.24059 34.81450 458 ft 102 kts 13°
2026-05-01 09:41 32.24744 34.81655 455 ft 102 kts 12°
2026-05-01 09:42 32.25427 34.81875 454 ft 102 kts 15°
2026-05-01 09:42 32.26108 34.82118 454 ft 102 kts 14°
2026-05-01 09:42 32.27474 34.82573 445 ft 102 kts 12°
2026-05-01 09:43 32.28854 34.82918 442 ft 101 kts 11°
2026-05-01 09:43 32.29541 34.83104 448 ft 101 kts 11°
2026-05-01 09:43 32.30225 34.83298 453 ft 101 kts 12°
2026-05-01 09:44 32.31589 34.83681 454 ft 101 kts 11°
2026-05-01 09:44 32.32282 34.83850 449 ft 102 kts
2026-05-01 09:44 32.32974 34.84009 451 ft 101 kts
2026-05-01 09:45 32.33659 34.84209 447 ft 102 kts 12°
2026-05-01 09:45 32.35033 34.84598 453 ft 101 kts 11°
2026-05-01 09:45 32.35719 34.84783 462 ft 101 kts 11°
2026-05-01 09:46 32.36408 34.84959 461 ft 101 kts
2026-05-01 09:46 32.37096 34.85119 461 ft 101 kts
2026-05-01 09:46 32.37788 34.85291 458 ft 101 kts 10°
2026-05-01 09:46 32.38478 34.85454 456 ft 101 kts
2026-05-01 09:47 32.39165 34.85643 447 ft 102 kts 12°
2026-05-01 09:47 32.39850 34.85854 451 ft 101 kts 13°
2026-05-01 09:47 32.40531 34.86059 455 ft 101 kts 12°
2026-05-01 09:47 32.41201 34.86297 468 ft 100 kts 21°
2026-05-01 09:48 32.41838 34.86643 469 ft 101 kts 23°
2026-05-01 09:48 32.42463 34.87004 572 ft 99 kts 25°
2026-05-01 09:48 32.43006 34.87455 734 ft 94 kts 46°
2026-05-01 09:48 32.43409 34.88081 768 ft 98 kts 56°
2026-05-01 09:49 32.43801 34.88770 785 ft 101 kts 57°
2026-05-01 09:49 32.44131 34.89502 811 ft 101 kts 67°
2026-05-01 09:49 32.44399 34.90272 837 ft 100 kts 66°
2026-05-01 09:49 32.44675 34.91027 846 ft 101 kts 66°
2026-05-01 09:50 32.44944 34.91800 836 ft 102 kts 68°
2026-05-01 09:50 32.45183 34.92598 805 ft 102 kts 71°
2026-05-01 09:50 32.45387 34.93403 789 ft 102 kts 75°
2026-05-01 09:50 32.45573 34.94214 790 ft 102 kts 73°
2026-05-01 09:51 32.45759 34.95031 775 ft 103 kts 75°
2026-05-01 09:51 32.45931 34.95858 731 ft 104 kts 76°
2026-05-01 09:51 32.46024 34.96695 709 ft 103 kts 88°
2026-05-01 09:51 32.46094 34.97536 678 ft 103 kts 82°
2026-05-01 09:52 32.46193 34.98380 647 ft 103 kts 77°
2026-05-01 09:52 32.46445 34.99164 659 ft 100 kts 66°
2026-05-01 09:52 32.46720 34.99916 672 ft 100 kts 66°
2026-05-01 09:52 32.46990 35.00680 638 ft 101 kts 66°
2026-05-01 09:53 32.47285 35.01435 688 ft 103 kts 63°
2026-05-01 09:53 32.47585 35.02161 937 ft 95 kts 65°
2026-05-01 09:53 32.47838 35.02874 1170 ft 93 kts 65°
2026-05-01 09:53 32.48097 35.03588 1389 ft 94 kts 65°
2026-05-01 09:54 32.48363 35.04291 1543 ft 97 kts 63°
2026-05-01 09:54 32.48621 35.05040 1767 ft 98 kts 70°
2026-05-01 09:54 32.48886 35.05782 1917 ft 101 kts 54°
2026-05-01 09:54 32.49301 35.06468 2091 ft 98 kts 53°
2026-05-01 09:55 32.49707 35.07129 2028 ft 100 kts 52°
2026-05-01 09:55 32.50122 35.07773 2047 ft 99 kts 50°
2026-05-01 09:55 32.50555 35.08414 2077 ft 100 kts 51°
2026-05-01 09:55 32.51003 35.09091 1998 ft 106 kts 50°
2026-05-01 09:56 32.51442 35.09773 1976 ft 102 kts 47°
2026-05-01 09:56 32.51989 35.10267 1983 ft 97 kts 32°
2026-05-01 09:56 32.52538 35.10701 1987 ft 96 kts 31°
2026-05-01 09:56 32.53069 35.11174 2025 ft 96 kts 40°
2026-05-01 09:57 32.53573 35.11698 2018 ft 97 kts 40°
2026-05-01 09:57 32.54080 35.12238 2028 ft 99 kts 41°
2026-05-01 09:57 32.54552 35.12845 1993 ft 101 kts 48°
2026-05-01 09:57 32.55000 35.13479 1984 ft 100 kts 49°
2026-05-01 09:58 32.55439 35.14107 2011 ft 99 kts 50°
2026-05-01 09:58 32.55841 35.14773 2030 ft 100 kts 54°
2026-05-01 09:58 32.56214 35.15490 2052 ft 103 kts 60°
2026-05-01 09:58 32.56515 35.16266 1983 ft 105 kts 66°
2026-05-01 09:59 32.56790 35.17047 1965 ft 100 kts 67°
2026-05-01 09:59 32.57047 35.17806 1934 ft 99 kts 67°
2026-05-01 09:59 32.57280 35.18564 1986 ft 96 kts 77°
2026-05-01 09:59 32.57439 35.19331 1828 ft 98 kts 67°
2026-05-01 10:00 32.57781 35.20035 1566 ft 99 kts 60°
2026-05-01 10:00 32.58035 35.20774 1368 ft 95 kts 81°
2026-05-01 10:00 32.58050 35.21537 1203 ft 93 kts 89°
2026-05-01 10:00 32.58061 35.22314 1008 ft 94 kts 92°
2026-05-01 10:01 32.58019 35.23064 892 ft 90 kts 94°
2026-05-01 10:01 32.57970 35.23772 874 ft 81 kts 95°
2026-05-01 10:01 32.57934 35.24408 865 ft 74 kts 91°
2026-05-01 10:01 32.57934 35.25012 870 ft 75 kts 88°
2026-05-01 10:02 32.58083 35.25613 858 ft 78 kts 59°
2026-05-01 10:02 32.58446 35.26066 833 ft 74 kts 27°
2026-05-01 10:02 32.58929 35.26194 799 ft 72 kts 349°
2026-05-01 10:02 32.59378 35.25966 736 ft 69 kts 317°
2026-05-01 10:03 32.59637 35.25521 601 ft 62 kts 287°
2026-05-01 10:03 32.59666 35.25018 415 ft 59 kts 270°
2026-05-01 10:03 32.59676 35.24558 312 ft 54 kts 272°
2026-05-01 10:03 32.59690 35.24121 221 ft 52 kts 271°
2026-05-01 10:04 32.59696 35.23748 183 ft 37 kts 270°
2026-05-01 10:04 32.59699 35.23501 186 ft 21 kts 240°
2026-05-01 10:04 32.59615 35.23497 190 ft 12 kts 211°
2026-05-01 10:04 32.59606 35.23502 186 ft 0 kts 355°